Wind_Speed
53 53 54 54 55 54 54 52 51 52 54 56 58 59 59 59 58 59 59 59 60 60 61 61 61 61 60 58 56 54 52 51 50 49 49 49 50 50 50 51 52 52 52 51 49 47 48 49 51 52 52 53 55 56 57 57 57 57 57 57 57 58 58 59 60 60 59 57 55 51 46 44 43 43 42 41 40 39 39 38 37 36 35 34 33 33
49 50 51 51 52 52 52 51 49 49 50 53 55 58 58 58 58 58 58 59 59 60 60 61 61 60 59 58 57 54 53 52 51 51 51 52 53 53 52 53 53 53 53 52 50 50 51 53 53 52 53 55 57 58 59 60 59 59 58 58 59 59 60 61 61 62 60 59 57 54 49 46 44 42 40 39 39 40 40 39 38 37 35 34 34 34
46 46 47 48 48 49 49 49 48 47 47 48 50 52 53 54 54 54 54 55 55 55 56 56 56 56 56 56 55 54 53 53 53 52 52 52 53 53 54 54 55 54 54 53 54 55 56 55 54 52 53 56 58 61 62 62 61 59 59 59 59 60 61 61 62 62 61 60 57 54 50 46 42 40 39 39 40 41 41 40 39 37 35 35 35 35
43 44 45 45 45 46 47 48 47 47 46 46 46 47 48 49 49 50 50 49 49 49 50 50 50 50 51 53 53 54 54 55 55 55 54 53 53 53 54 54 55 55 55 56 57 58 58 57 54 52 54 57 61 63 64 63 61 59 58 58 59 60 61 61 62 62 61 59 57 53 48 43 40 38 39 41 42 42 42 41 39 37 36 36 36 35
40 41 42 42 43 44 46 47 47 47 47 46 45 45 46 47 47 47 46 46 45 45 45 45 46 47 48 50 52 53 55 56 58 58 58 57 56 55 56 56 57 57 58 58 59 59 59 57 55 54 56 60 63 65 64 62 60 59 58 58 59 59 60 61 61 61 60 59 56 52 46 42 39 40 41 43 44 44 43 41 39 37 36 37 37 36
35 37 38 40 41 43 45 46 47 47 47 46 46 46 47 48 48 47 46 45 44 44 44 44 44 45 47 48 49 51 53 56 58 60 61 61 60 60 59 60 60 60 60 60 59 59 58 57 56 56 59 62 64 64 63 61 59 59 59 59 59 59 60 60 60 60 59 58 55 51 46 43 43 44 45 46 46 45 42 40 38 37 37 38 38 36
32 33 35 36 38 41 43 45 46 47 47 47 47 48 48 49 49 49 48 46 45 45 44 44 45 45 46 46 47 48 50 52 54 57 58 59 59 59 59 59 59 59 58 58 57 57 57 57 57 58 60 62 63 63 61 60 59 59 59 59 59 59 60 60 60 59 58 57 55 52 48 47 47 49 49 49 47 44 41 38 37 38 38 39 38 36
32 32 32 33 35 37 39 41 44 46 47 48 49 49 50 50 51 50 50 49 47 47 46 46 46 46 46 46 46 46 47 48 49 51 52 53 53 54 54 54 54 54 53 53 53 54 54 55 56 58 60 61 62 61 60 59 59 58 59 59 59 59 59 60 60 59 58 57 56 53 50 50 50 51 51 49 45 42 39 37 38 39 40 40 38 36
33 32 32 32 33 34 35 37 40 42 45 47 49 50 51 51 51 51 51 50 49 48 48 47 47 47 46 46 46 45 46 46 47 47 48 48 49 49 49 49 49 49 49 50 50 51 52 53 54 56 57 59 59 59 59 59 58 58 58 58 58 59 59 60 60 59 58 57 56 54 52 51 51 50 49 46 43 40 38 38 39 40 41 40 38 36
33 33 33 33 33 33 34 35 36 38 41 44 47 50 51 51 51 51 51 50 50 49 48 48 48 48 47 46 46 46 45 46 46 46 46 47 47 48 48 48 48 48 48 48 49 49 50 51 52 54 55 56 57 57 58 57 57 57 58 58 58 58 59 60 60 59 58 57 55 53 51 50 49 48 47 44 41 38 37 38 40 41 41 40 38 36
33 33 33 33 33 33 33 34 35 36 37 40 44 47 49 50 51 50 50 50 49 49 49 48 49 48 48 47 46 46 46 45 45 45 46 46 47 47 48 48 48 48 48 48 49 50 51 52 53 54 55 56 56 57 57 57 57 57 57 57 57 58 59 59 59 58 57 55 53 51 50 48 47 47 45 43 40 38 38 40 41 42 41 39 37 35
33 32 32 32 33 33 33 34 34 35 36 38 40 42 45 47 48 48 48 48 48 48 48 48 48 48 48 48 47 47 46 46 46 46 46 46 47 48 48 48 49 49 49 49 49 50 51 52 54 55 56 57 57 58 57 57 57 57 57 57 57 57 58 59 58 57 55 53 51 49 48 48 47 46 44 41 39 38 40 41 42 42 40 39 37 36
34 33 32 32 32 33 33 33 34 34 35 36 38 39 41 43 44 45 46 46 46 46 46 46 47 47 48 48 48 47 47 47 47 47 47 47 48 48 49 49 49 50 50 50 50 50 50 51 53 54 56 57 58 58 58 58 58 57 56 56 56 57 58 58 57 55 53 50 49 48 48 48 47 45 42 40 39 39 41 42 42 41 40 38 37 36
36 35 34 33 33 33 32 32 33 34 35 35 36 37 38 39 41 42 43 43 43 43 44 44 45 46 47 47 47 47 47 47 48 48 48 48 49 49 50 50 50 50 51 51 51 50 50 50 51 52 54 55 56 57 58 58 57 57 56 56 56 56 57 57 55 53 51 49 48 48 48 47 46 43 41 40 40 41 42 42 41 40 40 39 38 37
37 36 35 35 34 34 33 32 32 33 33 34 35 36 37 38 38 39 40 41 41 41 41 42 43 44 45 45 46 46 47 47 48 48 48 49 49 50 50 50 50 51 51 51 51 51 50 50 50 51 52 54 55 56 56 57 56 56 55 55 55 56 56 55 53 51 49 48 48 48 48 46 44 42 41 40 41 42 42 42 41 40 40 40 39 38
37 37 36 36 36 35 34 33 33 32 33 33 34 35 36 36 37 37 38 38 39 39 38 39 40 41 42 43 44 44 45 45 46 47 48 48 49 49 49 49 50 50 50 50 50 50 50 50 50 51 52 53 54 55 56 56 55 55 54 54 54 54 54 53 52 50 49 49 49 48 47 46 44 43 42 42 43 43 42 42 41 41 41 41 40 40
37 37 37 37 37 36 36 35 34 34 33 33 33 34 35 36 36 36 37 37 37 37 37 37 37 38 39 39 40 41 42 42 43 44 45 46 47 47 47 48 48 49 49 49 49 50 50 50 50 51 52 53 54 55 55 55 55 54 54 53 53 54 53 52 51 50 49 49 49 49 48 47 46 45 45 45 45 44 43 42 42 42 42 42 41 41
37 37 37 37 36 36 36 36 36 36 35 34 33 33 34 35 35 36 36 37 37 36 36 36 36 37 37 37 37 38 38 38 39 40 41 43 44 44 45 45 46 47 48 48 48 48 48 49 49 50 51 52 53 54 54 54 54 53 53 53 53 53 53 52 51 50 51 51 50 50 49 49 49 49 49 48 48 46 45 43 43 43 43 43 43 42
37 37 37 37 36 36 36 36 36 36 36 35 34 34 34 34 34 35 35 36 36 36 36 36 36 36 36 37 37 36 35 36 36 37 38 39 40 41 41 42 44 45 46 46 46 47 47 48 48 49 50 51 52 52 53 53 53 53 52 53 53 53 53 53 52 52 52 52 52 51 51 51 52 52 52 52 51 50 48 46 45 45 45 44 43 42
36 36 36 36 36 35 35 36 36 36 35 35 35 34 34 34 34 34 35 35 35 35 36 36 36 36 36 36 36 36 36 35 36 36 37 37 38 38 39 40 41 43 43 44 45 45 46 46 47 48 49 50 51 51 52 52 52 52 52 53 53 54 54 53 53 53 53 54 54 54 54 54 55 55 55 55 55 54 52 50 48 47 45 44 43 41
34 35 36 36 36 35 35 35 35 35 35 35 35 36 36 36 35 35 34 34 34 35 35 35 35 35 35 35 36 36 36 36 36 37 37 37 37 37 38 39 40 41 42 43 43 44 44 46 47 48 49 49 50 51 51 51 51 51 52 52 53 53 54 54 54 54 55 55 56 56 56 57 57 57 57 57 57 56 54 52 48 46 44 43 42 40
32 33 34 35 35 36 36 35 35 35 35 36 36 36 37 36 36 35 35 35 35 35 35 35 35 35 35 35 36 36 36 36 37 38 38 38 38 38 38 38 39 40 41 41 42 42 43 45 46 47 48 49 50 50 50 50 50 50 51 51 52 53 54 54 55 55 56 57 57 58 58 58 59 59 58 58 57 55 53 49 46 44 43 42 41 40
31 32 33 33 34 35 36 36 35 35 35 36 36 37 37 36 36 36 36 35 35 35 35 35 35 35 35 36 36 37 36 37 37 38 38 39 39 39 38 38 39 40 41 41 41 41 42 44 45 46 47 48 49 50 50 49 49 49 49 49 49 51 52 54 55 56 57 57 58 59 59 60 59 59 58 57 55 52 49 46 44 43 43 42 41 38
30 30 31 32 33 34 35 35 35 35 35 36 36 37 37 37 37 37 37 37 36 36 36 36 36 36 37 37 37 37 37 37 37 38 38 39 40 40 39 39 39 40 40 40 40 40 41 43 44 45 46 47 48 48 48 48 47 47 46 46 46 48 50 52 54 55 57 57 58 58 59 59 59 58 56 54 52 48 46 44 43 43 43 41 39 36
31 30 30 31 32 33 34 35 35 36 36 36 36 37 37 37 38 38 38 38 38 38 37 37 37 38 38 37 37 37 37 37 37 37 38 38 39 39 39 39 39 40 40 40 40 40 41 42 43 44 45 46 47 47 47 46 45 44 44 43 43 44 46 49 51 53 55 56 57 57 58 58 57 56 53 51 48 46 45 44 43 43 42 40 37 34
33 32 31 30 31 32 33 34 35 36 36 37 37 37 37 37 38 38 39 39 39 39 38 38 38 39 39 38 37 37 37 37 36 36 37 37 38 38 38 38 39 40 40 40 40 40 41 42 43 43 44 45 45 45 45 44 44 43 42 42 42 42 43 45 48 51 53 55 56 56 57 56 55 53 51 48 47 46 45 44 43 42 40 37 34 32
36 34 33 32 31 31 32 33 34 35 36 37 38 38 38 38 38 38 39 39 39 38 38 38 39 39 38 37 37 37 37 36 36 36 36 36 37 37 37 37 37 39 40 40 40 41 41 42 43 43 44 44 45 44 44 43 42 42 41 41 41 41 42 44 46 49 51 53 55 56 56 55 54 51 49 47 46 46 45 44 42 40 37 34 32 32
38 37 36 34 33 32 32 32 33 34 35 36 38 38 39 38 38 39 39 39 38 37 37 38 39 38 37 37 37 37 36 35 35 36 35 35 35 36 36 35 36 37 38 39 40 40 41 42 43 43 44 44 44 43 43 42 41 41 40 40 40 41 41 43 45 48 50 53 55 56 56 55 53 50 48 47 46 46 45 43 41 38 35 32 31 32
41 40 39 37 35 34 33 32 32 33 34 35 37 38 39 39 39 39 39 38 37 36 37 38 38 37 36 36 36 36 36 36 36 35 35 34 35 36 35 34 34 35 37 38 38 39 40 41 41 42 42 42 42 42 41 40 40 40 40 40 40 40 41 43 45 48 50 53 54 55 55 54 52 49 47 46 46 45 44 42 39 35 32 31 32 34
43 42 41 40 38 37 35 34 33 33 33 34 35 37 38 39 39 40 40 38 37 37 38 38 37 36 35 35 35 36 36 36 36 35 34 34 35 35 34 33 34 35 35 36 37 37 38 38 39 39 39 39 39 39 39 38 38 38 39 39 39 40 41 42 45 47 49 51 53 53 53 51 49 48 46 46 45 45 43 40 37 33 31 31 33 35
45 44 44 43 41 40 38 37 36 35 34 34 35 36 37 38 39 39 39 39 38 38 38 38 37 36 35 35 35 36 36 36 35 34 33 34 35 35 33 32 33 34 34 34 35 35 36 36 36 36 36 36 36 36 36 36 37 37 37 37 38 38 39 41 43 45 47 48 49 50 49 48 47 46 45 45 44 43 41 38 34 32 32 33 35 37
45 45 45 45 44 43 42 40 39 37 36 35 35 35 35 36 37 38 38 39 39 39 39 38 37 36 36 36 36 36 36 35 34 33 33 34 35 35 33 32 32 33 33 33 33 33 34 34 34 34 34 34 34 34 34 34 35 35 35 36 36 37 37 39 40 42 43 45 45 46 45 45 44 44 43 43 42 41 39 36 33 32 33 35 36 37
45 45 46 46 46 45 44 43 42 40 39 37 36 36 35 35 35 36 37 38 38 39 39 39 38 37 37 36 36 36 36 35 34 34 34 35 35 35 33 32 32 32 33 32 33 33 33 33 33 32 32 33 33 33 33 33 34 34 35 35 35 36 37 37 39 40 41 42 42 42 43 42 42 42 42 41 40 39 37 34 33 33 34 35 36 37
45 45 46 47 47 47 47 46 45 43 42 40 39 37 36 35 35 35 35 36 37 37 38 38 38 38 37 37 37 37 37 36 36 35 34 35 36 35 34 32 32 32 32 32 33 33 33 33 32 31 32 32 33 33 33 33 34 34 34 35 35 36 37 37 38 39 39 40 40 41 41 41 41 41 41 40 39 37 35 34 33 33 35 36 37 37
46 46 46 46 47 48 48 48 47 46 44 43 41 40 38 37 36 35 35 35 35 35 36 37 37 37 37 37 37 37 37 37 36 36 35 36 36 36 35 33 33 33 32 32 33 33 33 33 32 31 31 32 32 33 33 33 34 34 34 35 35 36 36 37 37 38 38 39 40 40 40 41 41 40 40 39 38 37 35 34 34 34 36 37 37 38
47 47 47 47 47 47 48 48 48 47 46 45 44 42 40 39 38 37 36 35 34 34 35 35 36 37 37 37 37 37 37 37 37 36 36 36 37 37 36 35 34 33 33 33 33 33 32 32 32 32 32 32 33 33 34 34 34 34 34 35 35 35 35 36 36 37 37 38 39 39 40 40 40 40 40 39 38 36 35 35 35 36 37 38 39 39
47 48 48 48 47 47 48 48 48 48 47 47 46 44 43 41 40 39 38 36 35 35 34 34 35 35 36 37 37 37 38 38 37 37 37 37 37 37 37 37 36 34 34 34 34 33 32 32 32 32 32 33 33 33 34 34 34 34 34 34 34 34 34 34 35 35 36 37 38 39 39 40 40 40 40 39 38 37 37 37 38 39 39 40 40 40
48 48 49 48 48 48 48 48 48 47 47 47 46 46 45 44 43 42 41 39 38 36 35 35 34 34 35 35 36 37 38 38 38 38 38 38 38 38 38 37 36 35 35 34 34 33 32 32 32 33 33 33 33 33 33 33 34 34 35 34 34 34 34 34 34 35 36 37 38 38 39 39 40 40 40 39 39 39 39 39 40 40 40 41 41 41
48 48 49 48 48 48 48 47 47 47 46 46 46 46 46 46 46 45 44 43 41 39 38 36 35 35 34 34 35 36 37 38 39 39 39 39 38 38 38 38 37 36 36 35 34 34 33 33 33 33 32 33 33 33 33 34 34 34 35 35 34 34 35 34 34 35 36 36 37 38 39 39 40 40 40 40 40 40 40 40 40 40 40 40 40 41
48 48 48 48 48 48 47 47 47 46 46 45 46 46 46 46 47 47 47 46 44 43 41 39 38 36 35 35 35 36 36 37 38 39 39 39 39 39 38 38 38 37 37 36 35 35 34 34 33 33 32 32 33 33 33 33 34 34 35 35 35 35 35 35 35 35 36 37 37 38 39 39 39 40 40 40 40 40 40 39 39 39 40 40 40 41
47 47 48 48 47 47 47 47 46 46 45 45 45 45 46 46 47 47 47 47 47 46 44 43 41 39 38 37 36 36 36 36 37 38 38 39 39 39 39 39 38 38 37 37 36 36 35 34 34 33 32 33 33 33 33 33 34 34 34 34 35 35 35 35 35 36 36 36 37 38 38 39 39 39 39 39 39 39 39 39 39 39 40 40 40 41
47 47 47 47 47 46 46 46 46 45 45 44 44 44 45 45 45 46 46 47 47 47 47 46 44 42 41 40 39 38 37 36 36 37 37 37 38 38 38 39 39 38 38 38 37 37 37 36 35 34 33 33 33 33 34 34 34 33 33 34 34 34 34 35 35 35 35 36 36 37 38 38 38 39 39 39 39 39 39 39 40 40 40 41 41 42
46 47 47 47 46 46 46 45 45 45 44 44 44 44 44 44 44 44 45 45 46 47 48 48 47 46 44 43 41 40 39 38 38 37 37 37 37 37 37 38 38 38 38 38 38 38 38 37 36 35 35 34 34 34 34 34 34 33 33 34 34 34 34 35 35 34 34 35 36 36 36 37 37 38 38 38 39 39 40 40 40 41 41 41 42 42
46 46 46 46 46 46 46 45 45 44 44 43 43 43 43 43 43 43 44 44 45 46 47 47 48 48 48 46 45 43 41 41 40 39 38 37 37 37 37 37 38 38 38 38 38 38 38 38 38 37 37 36 36 36 36 35 35 34 34 34 34 34 34 34 34 34 34 35 36 36 36 36 37 38 38 39 40 40 40 41 41 41 42 42 43 43
46 46 46 46 46 46 46 46 45 45 44 43 43 43 42 42 42 42 43 44 44 44 45 46 47 48 49 49 48 46 44 43 42 42 41 40 39 38 37 37 37 37 37 37 38 38 37 37 38 38 38 38 38 38 38 37 36 36 36 36 35 35 35 36 35 35 36 37 37 37 37 37 38 39 40 40 41 41 41 41 42 42 42 43 43 43
46 46 46 46 46 46 46 46 45 44 44 43 43 43 42 42 42 42 42 43 43 43 44 44 45 46 48 49 49 48 46 45 44 44 43 42 41 40 39 39 38 38 38 38 38 38 37 37 37 38 38 39 39 39 39 38 38 37 38 37 37 37 37 37 37 37 38 38 38 38 38 38 39 40 41 41 41 41 42 42 42 42 42 43 43 43
46 46 47 47 47 47 47 46 45 44 44 44 43 43 43 42 42 42 42 43 43 43 43 43 44 45 46 47 48 48 47 47 46 45 45 44 44 43 42 41 41 40 39 39 39 38 38 38 38 37 37 38 39 39 39 38 38 38 39 39 39 39 39 39 39 39 39 39 39 39 39 39 40 41 41 41 41 42 42 42 42 42 42 43 43 43
46 46 46 46 46 46 46 46 45 45 44 44 44 43 43 43 42 43 43 43 43 43 43 43 43 43 44 45 45 46 47 47 47 46 45 45 45 45 44 44 43 42 42 41 41 40 40 39 38 38 37 37 37 37 37 37 37 38 38 39 39 39 39 40 40 40 40 40 40 40 40 40 41 41 42 42 42 42 42 42 42 42 42 43 43 43
46 46 46 46 46 46 46 45 45 45 44 44 44 43 43 43 43 44 44 44 44 43 43 43 43 43 42 43 43 44 44 46 46 47 46 46 45 45 45 45 44 44 44 43 43 42 42 41 40 39 38 37 36 36 36 36 36 36 36 37 37 38 38 39 39 40 40 40 41 41 41 42 42 42 42 42 42 43 42 42 42 42 42 42 42 43
45 46 46 46 46 46 45 45 44 44 44 44 44 43 43 43 44 45 45 45 45 44 43 43 42 42 42 41 41 42 42 43 44 45 46 45 45 44 44 44 44 43 43 43 43 43 42 41 41 41 40 38 37 36 35 35 34 34 34 35 35 35 36 36 37 38 39 39 40 40 41 41 42 42 42 42 42 42 42 41 41 41 41 41 42 42
45 45 46 46 46 45 45 44 44 44 44 44 44 43 43 43 44 45 46 46 45 44 43 43 42 41 41 41 40 40 40 41 42 43 44 44 43 42 41 41 41 41 41 42 42 42 42 41 41 40 40 40 38 37 36 35 35 34 34 34 34 34 34 34 35 36 36 37 38 38 39 39 40 40 40 40 40 40 40 40 40 40 40 40 40 41
Wind_Direction
251 250 250 249 250 251 251 251 252 252 250 249 247 246 245 244 244 245 246 247 249 250 251 251 252 252 252 251 249 247 243 241 240 241 239 233 227 224 225 229 235 242 250 256 259 260 260 259 259 256 252 248 245 245 246 250 255 259 262 264 265 265 264 263 261 259 257 256 253 248 240 235 234 236 238 238 238 238 238 239 240 242 243 244 245 246
251 250 250 250 250 250 250 249 249 248 248 247 247 246 246 246 246 247 248 248 249 250 250 251 251 250 250 249 248 245 241 237 237 237 237 234 231 230 231 235 241 247 253 257 258 258 257 256 254 250 245 241 240 240 243 247 253 258 260 262 263 263 263 262 260 258 257 255 253 248 241 236 234 236 237 238 238 238 238 239 240 242 243 243 244 245
249 249 249 248 248 249 248 248 247 246 245 244 244 243 243 243 244 245 246 246 247 247 247 248 248 247 247 246 245 243 239 235 234 235 237 237 236 237 239 244 248 251 254 256 256 256 254 253 250 246 241 239 239 240 243 248 253 257 260 261 261 262 262 261 259 258 256 255 253 249 242 237 234 235 236 236 236 236 237 238 240 241 242 242 243 244
249 249 248 247 247 247 247 247 246 244 242 241 240 238 238 238 239 241 241 242 241 241 241 241 242 242 243 244 243 242 239 236 234 235 237 239 240 242 244 247 249 251 252 253 253 253 252 251 248 243 240 239 240 241 244 249 254 258 259 260 260 261 261 260 259 257 256 254 252 247 241 235 233 233 234 234 235 235 236 238 239 240 240 241 243 244
252 251 250 249 248 247 247 246 245 243 241 239 237 236 235 235 236 238 238 238 237 235 235 235 236 237 239 241 242 241 240 238 236 237 238 240 241 243 244 245 247 248 249 250 251 251 251 250 247 242 239 238 240 242 246 251 255 258 259 259 260 260 261 261 259 258 256 253 250 245 238 232 229 230 231 232 233 234 235 237 238 239 240 241 242 243
257 256 255 254 252 250 249 247 246 244 241 239 236 234 234 234 235 236 237 235 234 232 232 231 232 233 236 238 239 240 240 239 238 238 239 240 242 243 243 244 245 246 247 248 249 249 250 249 247 243 240 239 241 244 248 252 255 257 257 258 259 260 260 261 260 258 255 252 248 242 234 228 227 228 229 230 231 233 235 236 237 238 239 241 242 242
261 261 260 259 257 255 253 251 249 246 243 240 237 235 234 234 235 236 235 234 232 231 231 231 231 231 233 234 235 236 237 238 238 239 239 240 241 242 243 244 245 246 247 248 248 249 249 249 247 246 244 244 245 248 251 253 255 256 257 258 258 259 260 260 259 257 254 251 247 240 232 227 225 227 228 229 231 232 234 235 236 238 239 240 241 241
262 262 262 262 261 260 258 256 253 250 247 243 240 238 236 236 236 236 234 233 231 231 231 231 231 231 232 232 233 234 235 236 237 237 238 239 240 241 243 245 247 248 249 250 249 249 249 249 249 249 249 249 250 252 254 256 257 258 259 259 259 259 259 259 258 256 254 250 246 240 232 228 227 229 230 231 231 232 232 234 236 237 239 240 240 241
261 261 262 262 262 262 261 260 257 255 251 248 244 241 240 238 238 237 236 234 233 232 232 232 233 233 233 233 234 234 234 235 236 237 238 239 240 242 244 245 247 249 250 251 251 250 250 250 251 251 252 253 254 255 257 258 260 261 262 262 261 260 259 258 257 256 253 250 246 241 235 231 231 232 233 232 231 231 231 233 236 238 238 239 239 240
260 261 261 261 262 262 262 261 260 258 255 252 248 245 243 241 240 239 238 237 236 236 236 236 236 236 236 236 236 236 237 237 238 238 240 241 242 244 245 245 246 247 247 248 249 250 251 252 253 253 254 255 256 257 258 260 261 262 263 263 262 261 260 258 257 256 253 251 247 242 238 235 235 235 234 232 230 229 231 234 236 237 238 238 238 240
260 260 260 261 261 261 262 261 261 259 258 255 253 250 247 245 243 242 242 241 241 240 240 240 240 239 240 240 239 239 240 240 240 241 243 244 245 246 246 246 245 245 245 245 246 247 249 250 252 253 254 255 256 257 259 260 260 261 261 261 261 260 259 258 257 256 254 251 247 243 239 237 236 234 232 229 228 229 231 234 236 237 237 237 238 239
259 259 259 260 260 261 261 261 261 260 259 257 255 253 251 249 247 246 245 245 244 244 243 243 243 242 242 242 242 242 242 242 243 244 245 246 247 247 247 247 246 245 244 244 244 244 245 247 248 249 251 252 254 255 256 257 258 258 258 258 258 258 257 257 256 255 253 250 246 242 238 236 234 232 229 227 227 229 232 235 235 235 235 236 237 239
258 258 259 259 260 260 261 261 261 261 260 258 257 255 253 252 251 249 248 247 247 246 245 245 244 244 244 243 243 243 243 243 244 245 246 247 247 248 248 248 247 246 246 245 245 245 245 246 246 247 248 249 250 252 253 254 255 255 256 256 256 256 255 255 255 253 251 247 243 239 236 233 231 229 227 226 227 230 233 234 234 234 234 235 236 238
256 257 257 258 259 260 261 262 262 261 260 259 257 256 255 254 253 252 250 250 249 247 246 246 245 245 245 244 244 244 244 244 244 245 246 246 247 247 248 248 248 247 247 247 247 247 248 248 248 248 248 248 249 250 251 252 253 253 254 254 254 254 254 254 253 251 248 244 240 237 234 231 229 227 225 226 228 231 232 232 232 233 233 235 236 237
254 255 255 256 257 259 260 261 261 261 259 258 256 255 254 254 253 252 252 251 250 249 248 247 246 246 245 245 245 245 245 245 246 246 246 246 246 247 247 247 247 247 247 247 248 249 249 250 250 250 250 249 250 251 251 252 252 253 253 254 254 254 253 252 251 248 245 241 238 235 232 230 227 225 225 227 229 230 230 231 231 232 233 235 236 237
253 253 253 253 255 256 258 259 260 259 259 257 255 254 253 253 252 252 252 252 251 250 249 248 247 246 246 246 246 246 246 246 246 246 246 246 246 246 246 246 247 247 247 248 248 249 249 250 250 251 251 251 252 252 253 253 253 253 253 254 254 254 253 251 249 246 242 239 236 233 231 229 226 225 225 226 227 228 229 229 231 232 234 235 235 236
253 252 251 251 252 253 255 256 257 258 258 256 255 254 253 253 253 253 252 252 252 251 250 249 248 247 247 246 246 246 247 247 247 247 246 246 246 246 246 246 247 248 248 248 249 249 250 250 251 252 252 253 253 254 254 254 254 254 254 255 255 254 252 250 246 243 239 236 234 232 230 228 226 225 225 225 225 226 227 228 230 232 233 234 235 235
252 251 251 250 250 251 252 253 255 256 256 256 256 255 254 254 253 253 253 253 252 252 251 250 250 249 248 248 247 247 247 247 248 247 246 246 246 246 246 246 247 248 249 249 250 250 251 251 252 253 254 254 255 255 255 255 254 254 255 255 255 254 252 248 244 241 237 235 232 230 229 228 227 226 225 224 224 224 226 228 229 231 231 232 233 234
251 250 250 250 250 250 250 251 252 254 255 255 255 255 255 254 254 254 253 253 253 252 252 251 251 251 250 250 249 249 248 248 248 248 247 247 247 247 246 247 247 248 249 250 250 250 251 252 253 254 255 255 256 256 255 255 255 255 256 257 256 255 251 247 243 239 236 234 231 229 228 228 227 227 226 224 223 224 225 227 228 229 230 231 232 233
249 249 250 250 250 249 249 249 250 251 252 253 253 253 253 253 253 253 253 253 253 253 252 252 252 252 252 252 252 252 251 250 250 250 249 248 248 247 247 247 248 249 249 250 250 251 252 252 253 254 255 255 256 256 255 255 255 256 257 258 257 255 251 247 243 239 236 234 231 230 228 229 229 229 227 226 225 224 225 226 227 228 229 230 231 233
248 248 248 249 249 249 248 248 248 249 249 250 251 251 251 252 252 252 252 253 253 253 253 253 253 253 253 254 254 255 254 253 253 252 251 250 249 248 248 248 248 249 250 250 250 251 251 252 253 254 254 255 255 255 254 255 255 257 258 259 258 255 252 247 243 240 237 235 233 231 230 230 230 230 230 228 227 226 226 227 227 228 230 231 232 233
246 247 248 248 248 248 247 247 247 247 247 247 248 249 249 250 250 250 251 251 251 252 253 253 253 254 254 254 254 255 255 255 255 254 253 252 251 250 249 248 248 249 249 249 250 250 251 252 252 253 253 254 254 254 254 255 256 257 259 259 258 256 252 249 245 242 240 238 236 235 233 232 232 232 231 230 229 228 228 228 229 230 231 232 233 233
245 245 247 248 248 248 248 247 247 246 246 246 246 246 247 247 247 248 248 248 249 249 250 251 252 252 252 252 253 253 254 254 254 254 254 254 253 252 250 249 249 249 249 249 249 249 250 251 251 252 252 252 252 253 253 254 256 257 258 258 257 255 253 250 247 245 242 241 239 238 236 235 234 233 232 231 231 230 230 230 230 231 232 233 233 234
248 246 246 247 247 248 248 248 247 247 246 245 245 245 245 245 245 245 246 246 246 247 247 248 250 251 251 252 252 252 253 253 253 254 254 254 254 253 252 250 249 249 249 249 248 248 249 249 250 250 251 251 251 252 253 254 255 256 256 256 255 254 252 250 248 246 244 243 241 240 238 237 235 234 233 232 232 232 231 231 231 232 233 233 234 235
251 249 248 247 247 247 248 249 248 248 247 246 245 245 245 244 244 244 244 245 245 245 246 248 249 250 251 252 253 253 253 253 253 253 254 255 255 254 253 251 250 249 249 249 248 248 248 248 248 248 249 249 249 250 251 251 252 253 253 253 253 252 250 249 248 246 245 243 241 239 238 237 236 235 234 233 233 232 232 231 231 232 233 234 235 237
252 251 250 248 247 246 247 248 248 248 247 247 246 246 245 244 243 243 243 243 244 244 246 247 249 250 251 252 253 253 253 253 253 253 254 254 254 254 254 252 251 250 250 249 249 248 248 248 247 247 247 247 247 247 248 249 249 250 251 251 251 250 248 247 246 245 243 241 239 238 237 236 235 235 234 234 233 232 231 231 231 232 233 234 237 240
251 251 250 249 248 247 246 246 247 247 247 247 247 246 245 244 243 243 243 243 243 243 245 246 247 249 250 251 251 252 252 252 252 252 253 253 253 253 253 252 251 251 251 250 250 249 248 248 247 247 246 245 245 245 246 247 248 249 249 249 248 247 246 245 244 242 241 239 237 236 236 235 235 235 234 234 232 231 230 230 230 231 233 235 239 243
249 250 250 249 248 247 246 246 246 246 246 246 247 247 246 246 245 244 243 243 242 243 244 245 246 247 248 248 249 250 251 251 251 251 251 251 251 252 251 251 251 251 251 251 251 250 249 249 248 247 246 245 245 245 245 246 247 247 247 247 246 245 244 242 241 240 239 238 237 236 236 236 236 236 235 233 232 230 230 229 230 231 234 237 242 245
248 248 248 248 248 247 247 246 246 245 245 246 246 246 247 247 246 246 245 244 243 243 243 243 244 244 245 246 247 248 248 248 249 249 248 249 250 251 251 250 250 251 251 251 251 250 249 249 248 248 247 246 246 246 246 246 246 246 246 246 245 244 242 241 240 239 238 238 237 237 238 238 238 237 236 234 232 230 230 230 230 232 235 240 244 247
247 247 247 247 247 247 246 246 245 245 245 245 246 246 246 246 246 246 246 246 245 244 243 243 243 243 243 244 245 246 246 247 247 247 247 248 249 249 250 249 250 250 250 250 250 249 249 248 248 248 248 247 247 247 247 247 247 247 246 246 245 244 243 241 240 239 239 239 239 239 239 239 239 238 236 234 232 231 231 231 231 233 237 241 245 247
248 247 247 247 246 246 246 245 245 245 245 245 245 246 246 246 246 246 247 247 246 245 245 244 243 242 241 241 242 243 244 245 245 246 246 247 248 249 248 248 248 248 248 248 248 248 248 247 247 247 247 247 247 246 246 247 247 247 247 246 246 245 244 243 242 241 240 240 240 240 240 239 238 237 235 234 233 233 232 232 232 234 238 242 244 246
247 247 247 246 246 246 246 245 245 244 244 244 245 246 246 246 246 246 247 247 247 247 246 246 244 243 242 241 241 242 243 243 243 244 244 245 247 247 246 246 246 246 246 245 245 246 246 246 245 245 245 245 246 245 245 246 246 247 247 246 246 245 244 243 242 241 240 240 239 239 238 237 236 235 234 234 233 233 232 232 233 236 239 242 244 245
247 247 247 247 246 246 246 245 245 245 244 244 245 246 246 246 247 247 247 247 247 247 247 247 246 245 244 243 242 242 242 241 241 241 241 243 244 245 244 243 243 243 243 243 243 243 244 244 244 243 242 243 243 243 243 244 244 245 245 245 244 243 242 241 240 239 238 238 237 236 235 234 233 233 233 233 232 232 232 232 234 237 240 242 244 245
245 246 247 247 247 247 246 246 246 245 245 245 245 246 246 247 247 247 247 248 248 248 248 248 248 248 247 245 244 243 243 242 241 240 240 241 242 243 242 241 241 241 242 242 242 242 243 243 243 242 241 241 241 242 242 242 242 242 242 242 242 241 240 239 238 237 237 236 235 234 233 232 231 231 231 232 232 232 232 234 236 239 241 243 244 245
244 244 245 246 247 247 247 247 247 246 246 246 246 246 247 247 248 248 248 248 248 248 249 249 249 249 249 248 247 246 245 244 242 241 240 240 241 241 241 240 239 239 239 240 241 241 242 243 243 242 241 240 240 240 240 240 240 240 240 240 239 239 238 238 237 237 236 236 235 234 233 232 231 231 231 231 232 232 233 235 238 241 242 243 244 245
244 243 244 244 245 246 247 248 248 248 247 247 246 246 247 248 248 248 248 248 248 248 248 248 249 249 249 249 248 248 247 246 244 243 241 241 241 241 241 239 238 237 237 238 239 239 240 241 242 242 241 240 239 239 239 240 240 239 239 239 238 238 238 238 237 237 237 236 236 235 234 233 232 232 232 232 232 233 234 236 238 240 242 243 243 244
244 243 243 243 243 245 246 247 248 249 249 248 248 247 247 247 248 248 248 247 247 246 247 247 247 248 248 248 248 248 248 247 246 244 243 242 242 241 241 240 239 238 237 238 238 238 238 239 240 241 240 240 239 239 238 239 239 239 239 239 238 238 238 238 238 238 238 237 237 236 235 234 234 234 234 233 233 234 234 236 237 239 240 241 242 244
244 243 243 243 243 243 244 246 247 248 249 249 249 248 247 247 247 247 247 246 246 245 245 245 245 245 246 246 247 247 247 247 247 246 244 244 243 243 242 242 241 240 238 238 238 238 237 237 238 239 240 240 239 239 238 238 238 239 240 240 239 239 239 238 238 238 239 238 238 237 237 236 235 235 235 235 235 235 236 236 237 238 240 241 243 244
244 244 243 243 243 243 244 245 246 247 248 249 250 250 249 247 247 246 246 245 245 244 243 243 243 243 243 244 244 245 246 246 246 246 245 245 244 244 243 243 243 242 240 239 239 238 238 237 237 238 239 240 240 239 238 238 238 238 239 240 240 240 239 239 239 239 239 239 239 238 238 237 237 237 237 237 236 237 237 238 239 240 241 243 244 245
244 244 244 244 243 243 244 244 245 246 247 248 249 250 249 249 248 247 246 245 244 243 242 241 241 241 241 241 242 243 244 245 246 246 245 245 245 244 244 244 244 243 242 241 240 239 238 238 238 238 238 239 240 240 239 238 237 237 238 238 239 239 239 239 239 239 239 239 239 238 238 238 238 238 238 238 238 238 239 240 241 242 243 244 245 246
244 245 244 244 244 244 244 244 244 245 245 246 247 248 249 249 249 248 247 246 245 244 243 241 240 239 239 240 240 241 242 244 245 245 245 245 245 244 244 244 244 244 244 243 242 240 239 239 238 238 238 238 239 239 239 238 237 237 237 237 237 238 238 238 238 238 238 238 238 238 238 238 238 238 238 239 239 240 240 241 242 243 243 244 245 246
244 244 244 244 244 244 244 244 244 244 244 244 245 246 248 249 249 249 249 248 247 245 244 242 240 239 238 238 239 239 241 242 243 244 244 244 244 244 244 244 244 245 245 244 243 242 240 240 239 239 238 238 239 239 239 238 238 237 237 237 237 237 237 237 237 237 238 238 238 238 238 238 238 239 239 240 240 240 241 241 242 243 243 244 245 246
243 243 244 244 244 243 243 243 243 243 243 243 243 244 245 247 248 249 250 249 249 247 246 244 242 240 238 237 237 238 239 240 241 242 243 243 244 244 244 244 245 245 245 245 244 243 242 241 240 240 240 239 239 239 240 239 239 238 237 238 238 238 238 238 238 239 239 240 240 240 239 240 240 241 241 241 241 242 242 242 243 243 244 245 246 247
242 242 242 243 243 243 242 242 241 241 241 241 241 242 243 244 246 247 248 249 249 248 247 246 244 242 240 238 237 236 237 239 240 241 241 242 242 243 244 244 245 245 246 245 245 245 244 243 242 241 241 241 240 240 240 240 240 239 239 239 239 240 241 242 242 242 242 243 243 243 243 243 243 243 243 243 243 243 243 244 244 244 245 246 247 248
242 241 242 242 243 243 242 241 241 240 240 239 239 240 240 241 243 244 246 247 248 248 248 247 246 245 243 240 238 236 236 237 239 240 241 241 241 242 243 244 245 246 246 246 246 246 245 245 244 243 243 242 242 241 241 241 241 241 241 240 240 241 242 242 243 243 244 244 245 245 245 245 245 245 245 245 245 245 245 245 246 246 246 247 248 250
242 242 241 242 242 242 242 241 241 240 239 238 238 238 238 238 239 241 243 244 246 247 247 247 247 246 245 243 241 238 237 236 237 238 240 241 241 241 242 243 244 245 246 246 246 246 246 245 245 245 245 244 243 242 242 242 243 243 243 242 242 241 241 242 242 242 243 244 245 245 246 246 246 246 247 247 247 247 247 247 247 247 248 249 251 253
242 242 242 242 242 242 242 242 241 240 239 238 237 236 236 236 236 237 239 241 243 244 245 246 247 247 247 245 244 241 239 237 237 237 238 240 241 241 242 242 243 244 245 245 246 246 246 246 246 246 246 245 245 245 244 244 245 245 245 245 244 243 243 243 243 243 243 243 244 245 245 246 246 247 248 248 248 248 248 248 249 250 251 253 254 256
242 242 242 242 242 242 242 242 241 240 239 237 236 235 234 234 234 235 236 238 240 241 243 245 246 247 247 247 246 244 242 240 238 237 237 238 239 240 241 242 242 243 243 244 244 245 245 246 246 246 246 246 246 247 247 247 247 247 248 248 247 247 246 246 246 245 245 244 244 245 245 246 247 248 249 249 250 250 251 251 252 253 255 256 258 260
241 242 242 242 242 242 242 242 242 241 239 237 236 235 234 233 232 233 234 236 237 239 241 242 243 245 246 247 247 246 245 243 241 239 238 238 238 239 240 241 241 241 242 242 242 243 244 244 245 246 246 247 247 247 248 248 249 249 250 250 250 250 250 250 249 249 248 247 247 247 247 247 248 249 250 251 252 253 254 255 256 257 258 259 261 262
241 241 242 242 242 242 242 242 242 241 240 238 236 234 233 232 232 232 233 234 236 237 238 240 241 243 244 246 247 247 247 246 244 242 241 239 239 240 240 241 241 241 241 241 241 241 242 242 243 244 245 246 246 247 248 249 250 250 251 251 252 252 252 253 253 252 251 251 250 250 250 250 251 251 252 253 254 255 256 257 258 259 260 261 262 263
242 242 242 242 242 242 242 242 241 241 240 238 237 235 233 232 231 231 232 233 234 236 237 238 239 240 242 243 245 246 247 247 246 244 243 241 240 240 241 242 242 242 241 241 240 240 240 240 241 242 243 244 245 246 247 248 249 250 251 252 252 253 254 255 255 255 254 254 254 254 254 254 254 254 255 256 257 257 258 259 260 260 261 262 263 263
Height
3019 3020 3022 3024 3025 3026 3027 3029 3031 3032 3032 3033 3034 3035 3036 3037 3039 3040 3041 3042 3043 3044 3046 3047 3048 3049 3051 3052 3054 3055 3057 3059 3061 3063 3065 3065 3065 3066 3067 3067 3067 3068 3069 3069 3071 3073 3075 3075 3076 3075 3075 3075 3074 3073 3072 3071 3071 3072 3073 3073 3074 3075 3076 3076 3077 3078 3078 3079 3079 3080 3080 3082 3084 3085 3086 3088 3089 3091 3092 3093 3093 3094 3095 3096 3097 3098
3015 3016 3017 3019 3020 3021 3022 3024 3026 3027 3028 3030 3031 3032 3032 3034 3035 3036 3037 3038 3039 3040 3041 3042 3043 3044 3046 3047 3049 3051 3053 3055 3057 3058 3060 3061 3061 3061 3062 3062 3062 3063 3064 3065 3067 3070 3072 3073 3073 3073 3073 3072 3071 3070 3068 3067 3067 3068 3069 3070 3071 3071 3072 3073 3073 3074 3075 3075 3075 3076 3076 3077 3079 3081 3083 3085 3087 3088 3089 3090 3090 3091 3092 3093 3094 3095
3011 3012 3013 3014 3016 3017 3018 3019 3021 3022 3023 3025 3027 3028 3030 3031 3032 3032 3033 3034 3035 3036 3037 3038 3039 3040 3042 3043 3045 3047 3048 3050 3052 3054 3055 3056 3057 3057 3058 3058 3059 3059 3061 3062 3064 3066 3068 3069 3069 3069 3070 3069 3068 3066 3064 3064 3064 3066 3067 3067 3068 3068 3069 3069 3070 3071 3071 3072 3072 3072 3073 3074 3075 3078 3081 3083 3084 3085 3085 3086 3087 3088 3089 3091 3092 3093
3007 3008 3009 3010 3012 3013 3013 3015 3016 3017 3019 3020 3021 3023 3025 3026 3027 3028 3029 3030 3031 3032 3033 3034 3035 3037 3037 3039 3041 3042 3044 3046 3047 3049 3050 3051 3052 3053 3054 3054 3055 3056 3057 3059 3061 3062 3063 3064 3065 3066 3066 3065 3063 3061 3060 3061 3062 3063 3063 3064 3065 3065 3066 3066 3066 3067 3067 3068 3068 3069 3070 3071 3073 3075 3078 3079 3080 3081 3081 3082 3084 3086 3087 3088 3089 3090
3004 3005 3005 3006 3007 3008 3009 3011 3012 3013 3014 3015 3016 3017 3019 3020 3022 3023 3025 3026 3027 3027 3029 3030 3031 3032 3034 3035 3036 3038 3040 3041 3042 3044 3045 3046 3047 3048 3049 3050 3051 3052 3054 3055 3057 3058 3058 3059 3060 3061 3061 3059 3057 3057 3057 3058 3059 3059 3060 3061 3061 3062 3062 3062 3062 3063 3064 3064 3065 3065 3067 3068 3070 3072 3074 3075 3076 3076 3077 3079 3081 3082 3084 3085 3087 3087
3001 3002 3002 3003 3004 3004 3005 3007 3008 3009 3010 3011 3012 3013 3014 3016 3017 3019 3020 3021 3022 3023 3024 3026 3027 3028 3030 3031 3032 3034 3035 3036 3037 3039 3040 3042 3042 3043 3044 3045 3046 3047 3049 3050 3052 3052 3053 3054 3055 3055 3054 3053 3053 3053 3054 3055 3055 3056 3057 3057 3058 3058 3058 3059 3059 3059 3060 3060 3061 3062 3063 3065 3066 3068 3069 3070 3071 3072 3074 3076 3078 3080 3081 3083 3084 3084
2998 2998 2999 3000 3000 3001 3001 3002 3003 3005 3006 3007 3007 3008 3010 3011 3013 3014 3015 3016 3017 3018 3020 3021 3022 3024 3025 3027 3028 3030 3031 3032 3032 3034 3035 3037 3038 3039 3040 3040 3041 3042 3043 3044 3046 3047 3047 3048 3049 3049 3049 3048 3049 3050 3051 3051 3052 3052 3053 3053 3054 3054 3055 3055 3055 3056 3056 3057 3057 3058 3059 3061 3062 3063 3064 3065 3067 3068 3071 3073 3075 3077 3078 3080 3081 3081
2995 2995 2996 2996 2997 2997 2998 2999 2999 3001 3002 3002 3003 3004 3005 3007 3008 3009 3010 3011 3012 3014 3015 3017 3018 3019 3021 3022 3024 3025 3026 3027 3028 3029 3030 3032 3033 3034 3035 3036 3037 3037 3038 3039 3040 3041 3042 3043 3044 3044 3044 3045 3046 3047 3047 3048 3049 3049 3049 3050 3050 3051 3051 3052 3052 3052 3053 3053 3054 3055 3056 3057 3057 3059 3060 3062 3064 3066 3067 3070 3072 3074 3076 3077 3077 3078
2992 2992 2993 2993 2993 2994 2995 2995 2996 2997 2998 2999 2999 3000 3001 3002 3003 3005 3006 3007 3008 3009 3011 3012 3013 3015 3016 3018 3019 3021 3022 3022 3023 3024 3026 3027 3028 3029 3030 3031 3032 3033 3033 3034 3035 3036 3037 3038 3039 3040 3041 3042 3042 3043 3044 3045 3046 3046 3046 3047 3047 3047 3048 3048 3048 3049 3049 3050 3050 3052 3052 3054 3055 3056 3058 3059 3061 3062 3064 3067 3069 3071 3072 3074 3074 3075
2989 2990 2990 2990 2991 2991 2992 2992 2993 2994 2995 2995 2996 2996 2997 2998 2999 3001 3002 3003 3005 3006 3007 3008 3009 3011 3012 3014 3015 3016 3017 3018 3019 3021 3022 3022 3023 3024 3025 3027 3028 3029 3030 3030 3031 3032 3032 3033 3035 3036 3037 3037 3038 3039 3040 3041 3042 3043 3043 3044 3044 3044 3044 3045 3045 3045 3046 3047 3047 3048 3050 3051 3052 3054 3055 3057 3058 3059 3062 3064 3066 3068 3069 3070 3071 3072
2987 2987 2987 2988 2988 2989 2989 2989 2990 2990 2992 2992 2992 2993 2994 2995 2996 2997 2999 3000 3001 3003 3004 3006 3007 3007 3008 3010 3011 3012 3014 3015 3016 3017 3018 3018 3019 3020 3021 3022 3023 3025 3026 3027 3028 3028 3029 3030 3031 3032 3032 3033 3034 3035 3036 3037 3038 3039 3040 3040 3040 3041 3041 3041 3042 3042 3043 3044 3045 3046 3047 3049 3050 3051 3052 3053 3054 3056 3059 3061 3063 3065 3066 3067 3067 3068
2984 2984 2985 2985 2986 2986 2987 2987 2987 2987 2988 2989 2989 2990 2991 2992 2993 2994 2995 2996 2998 2999 3001 3002 3003 3004 3005 3006 3007 3009 3010 3011 3012 3013 3014 3015 3015 3016 3017 3018 3019 3021 3022 3023 3024 3025 3026 3027 3028 3028 3029 3030 3030 3031 3032 3033 3034 3035 3035 3036 3037 3037 3037 3038 3038 3039 3040 3041 3042 3043 3045 3046 3047 3047 3048 3050 3051 3053 3056 3058 3060 3061 3062 3063 3064 3064
2981 2982 2982 2982 2983 2983 2984 2984 2984 2985 2985 2986 2986 2987 2987 2988 2990 2991 2992 2992 2994 2995 2997 2997 2999 3000 3001 3002 3003 3005 3006 3007 3008 3009 3010 3011 3011 3012 3013 3014 3015 3017 3018 3019 3021 3022 3023 3024 3025 3026 3026 3027 3027 3028 3029 3029 3030 3031 3031 3032 3032 3033 3033 3034 3035 3036 3037 3038 3039 3040 3042 3042 3043 3044 3045 3047 3048 3051 3053 3055 3056 3057 3058 3059 3060 3061
2978 2978 2979 2980 2980 2980 2981 2981 2982 2982 2982 2983 2983 2984 2985 2986 2987 2987 2988 2989 2990 2991 2992 2994 2994 2995 2997 2998 2999 3001 3002 3003 3004 3005 3006 3007 3007 3008 3009 3010 3011 3012 3013 3015 3016 3017 3019 3020 3022 3022 3023 3023 3024 3024 3025 3025 3026 3027 3027 3028 3028 3029 3030 3030 3031 3032 3034 3035 3036 3037 3038 3039 3040 3041 3042 3044 3046 3048 3050 3051 3052 3053 3054 3055 3056 3057
2974 2975 2976 2976 2977 2977 2978 2979 2979 2979 2980 2980 2981 2982 2982 2983 2983 2984 2985 2986 2987 2987 2989 2990 2990 2991 2992 2994 2995 2997 2998 2999 3000 3001 3002 3003 3004 3005 3006 3006 3007 3008 3009 3011 3012 3013 3015 3016 3017 3018 3019 3019 3020 3020 3021 3021 3022 3022 3023 3024 3025 3025 3026 3027 3028 3029 3031 3032 3033 3034 3034 3035 3036 3037 3039 3041 3043 3045 3046 3047 3048 3049 3050 3051 3052 3054
2971 2972 2972 2973 2973 2974 2975 2976 2977 2977 2977 2978 2978 2979 2979 2980 2981 2981 2982 2983 2984 2985 2986 2987 2987 2987 2989 2990 2992 2993 2994 2995 2996 2997 2998 2999 3000 3001 3002 3003 3003 3003 3005 3006 3008 3009 3010 3012 3013 3014 3014 3015 3016 3016 3017 3017 3018 3019 3020 3021 3021 3022 3023 3024 3025 3026 3028 3029 3030 3031 3031 3032 3033 3034 3035 3037 3039 3041 3042 3043 3044 3045 3046 3047 3049 3050
2967 2968 2969 2969 2970 2971 2972 2973 2973 2974 2974 2975 2976 2976 2977 2977 2977 2978 2979 2980 2981 2982 2982 2983 2984 2985 2986 2987 2988 2989 2991 2991 2992 2993 2994 2995 2996 2997 2998 2999 2999 2999 3000 3002 3003 3004 3006 3007 3008 3009 3010 3011 3012 3012 3013 3014 3015 3016 3017 3017 3018 3019 3020 3021 3022 3023 3025 3026 3027 3027 3028 3029 3029 3030 3031 3033 3035 3036 3037 3039 3040 3041 3042 3044 3045 3046
2963 2964 2965 2966 2967 2967 2968 2970 2970 2971 2972 2972 2972 2973 2973 2974 2974 2975 2976 2977 2977 2978 2979 2980 2981 2982 2983 2984 2985 2986 2987 2988 2988 2989 2991 2992 2992 2993 2994 2995 2996 2995 2996 2998 2999 3000 3002 3003 3004 3005 3006 3007 3008 3009 3010 3011 3012 3012 3013 3014 3015 3016 3017 3018 3019 3020 3022 3022 3023 3024 3025 3025 3026 3027 3027 3028 3030 3032 3033 3035 3036 3037 3038 3039 3040 3042
2960 2961 2962 2962 2963 2964 2965 2966 2967 2967 2968 2969 2969 2970 2970 2971 2971 2972 2972 2973 2974 2975 2976 2977 2978 2979 2980 2981 2982 2983 2984 2985 2985 2985 2987 2988 2988 2989 2991 2992 2992 2992 2992 2994 2995 2997 2998 2999 3000 3002 3002 3003 3004 3005 3006 3007 3008 3009 3010 3011 3012 3012 3013 3015 3016 3017 3018 3019 3020 3021 3021 3022 3022 3023 3023 3024 3026 3027 3029 3030 3031 3032 3033 3034 3036 3038
2957 2957 2959 2959 2960 2961 2962 2963 2964 2964 2965 2966 2966 2967 2967 2967 2967 2968 2969 2970 2971 2972 2973 2975 2975 2976 2977 2978 2979 2980 2981 2982 2982 2982 2983 2984 2985 2986 2987 2987 2987 2988 2988 2990 2992 2993 2994 2996 2997 2998 2999 3000 3001 3002 3003 3004 3005 3006 3007 3008 3009 3009 3011 3012 3013 3014 3015 3016 3016 3017 3017 3018 3019 3019 3020 3021 3021 3022 3024 3025 3026 3027 3029 3031 3032 3034
2954 2955 2955 2956 2957 2958 2958 2959 2961 2962 2962 2962 2962 2963 2963 2963 2964 2965 2966 2967 2968 2969 2970 2971 2972 2973 2974 2975 2976 2977 2977 2978 2979 2979 2979 2981 2982 2982 2983 2984 2984 2984 2985 2987 2988 2990 2991 2992 2993 2994 2996 2997 2998 2999 3000 3001 3002 3003 3004 3005 3006 3007 3008 3009 3010 3011 3012 3012 3013 3013 3014 3014 3015 3016 3017 3017 3018 3018 3020 3021 3023 3025 3027 3029 3030 3032
2951 2952 2952 2953 2954 2955 2955 2956 2957 2958 2959 2959 2959 2959 2959 2960 2961 2962 2963 2964 2965 2966 2967 2968 2968 2969 2970 2971 2972 2972 2974 2975 2975 2975 2976 2977 2977 2978 2979 2981 2981 2981 2982 2983 2985 2986 2987 2988 2989 2991 2992 2993 2995 2996 2997 2998 2999 3000 3001 3002 3003 3004 3005 3006 3007 3007 3008 3009 3009 3010 3010 3011 3011 3012 3013 3014 3015 3016 3018 3020 3022 3024 3026 3027 3028 3029
2947 2948 2949 2950 2951 2951 2952 2953 2954 2955 2955 2955 2955 2955 2956 2957 2958 2959 2959 2960 2961 2962 2963 2964 2965 2966 2967 2967 2968 2969 2970 2971 2972 2972 2973 2973 2974 2974 2976 2977 2978 2978 2978 2980 2982 2983 2984 2985 2986 2987 2989 2990 2991 2992 2993 2995 2996 2997 2998 2999 3000 3001 3002 3002 3003 3004 3005 3006 3006 3007 3007 3007 3008 3009 3010 3012 3013 3015 3017 3019 3021 3022 3023 3025 3026 3026
2944 2945 2946 2947 2947 2948 2948 2949 2950 2951 2951 2952 2952 2952 2953 2954 2955 2955 2956 2957 2958 2959 2960 2960 2961 2962 2963 2964 2965 2966 2967 2968 2969 2970 2970 2970 2970 2971 2973 2974 2975 2975 2975 2977 2978 2980 2981 2982 2982 2984 2985 2987 2987 2988 2990 2991 2992 2993 2994 2995 2996 2997 2998 2999 3000 3000 3001 3002 3002 3003 3003 3004 3005 3006 3008 3010 3012 3014 3016 3017 3018 3019 3021 3022 3022 3023
2940 2941 2942 2943 2944 2944 2945 2945 2946 2947 2947 2948 2948 2949 2950 2951 2951 2952 2952 2953 2955 2955 2956 2957 2958 2959 2960 2961 2962 2963 2964 2965 2966 2967 2967 2967 2967 2968 2970 2971 2972 2972 2972 2974 2975 2977 2977 2978 2979 2981 2982 2983 2984 2985 2986 2987 2988 2989 2990 2991 2992 2993 2994 2995 2996 2997 2997 2998 2999 3000 3000 3001 3002 3004 3006 3008 3010 3011 3013 3014 3015 3017 3018 3019 3019 3020
2937 2938 2939 2940 2940 2941 2941 2942 2942 2943 2944 2945 2945 2946 2947 2947 2948 2949 2949 2950 2951 2952 2953 2954 2954 2955 2957 2958 2960 2961 2961 2962 2963 2964 2964 2965 2965 2966 2967 2968 2969 2969 2970 2971 2972 2973 2974 2975 2976 2977 2978 2979 2980 2981 2982 2983 2984 2986 2986 2987 2988 2989 2990 2991 2992 2993 2994 2995 2995 2996 2997 2998 3000 3002 3003 3005 3007 3008 3009 3011 3012 3013 3014 3015 3016 3017
2933 2934 2935 2936 2937 2937 2938 2939 2939 2940 2941 2942 2942 2943 2943 2944 2945 2946 2947 2947 2948 2949 2950 2951 2951 2952 2953 2955 2957 2957 2958 2959 2960 2961 2962 2962 2962 2963 2964 2965 2966 2967 2967 2968 2969 2971 2972 2972 2973 2974 2975 2976 2977 2978 2978 2980 2981 2982 2982 2983 2984 2985 2986 2987 2988 2989 2990 2991 2992 2993 2994 2995 2997 2999 3001 3002 3003 3005 3006 3007 3009 3010 3011 3012 3012 3014
2930 2931 2932 2932 2933 2934 2935 2936 2936 2937 2938 2939 2939 2940 2940 2941 2942 2943 2943 2944 2945 2947 2947 2947 2948 2949 2950 2952 2953 2954 2955 2956 2957 2957 2958 2959 2959 2960 2961 2962 2964 2964 2964 2965 2966 2967 2969 2969 2970 2971 2972 2973 2974 2974 2975 2976 2977 2978 2978 2979 2980 2981 2982 2983 2984 2985 2986 2987 2988 2990 2991 2992 2994 2996 2997 2999 3001 3002 3003 3004 3006 3006 3007 3008 3009 3011
2926 2927 2928 2929 2930 2931 2932 2932 2933 2934 2935 2936 2936 2937 2937 2938 2939 2940 2940 2941 2943 2944 2944 2944 2945 2946 2947 2949 2950 2951 2952 2952 2953 2954 2956 2957 2957 2957 2957 2960 2961 2961 2962 2962 2963 2964 2965 2966 2967 2968 2969 2970 2970 2971 2971 2972 2973 2974 2975 2976 2977 2977 2978 2979 2980 2982 2983 2984 2985 2987 2988 2990 2992 2993 2995 2997 2998 2999 3000 3001 3002 3002 3003 3005 3007 3008
2922 2923 2924 2925 2926 2927 2928 2929 2930 2931 2932 2932 2933 2934 2934 2935 2936 2937 2937 2938 2940 2941 2941 2941 2942 2943 2945 2946 2947 2947 2948 2949 2950 2952 2953 2954 2953 2953 2955 2957 2958 2958 2958 2959 2960 2961 2962 2962 2964 2965 2966 2966 2967 2967 2968 2968 2969 2970 2971 2972 2973 2974 2975 2976 2977 2978 2980 2981 2982 2984 2986 2987 2989 2991 2992 2994 2995 2996 2997 2998 2998 2999 3000 3002 3004 3006
2917 2919 2920 2922 2922 2924 2925 2926 2926 2927 2928 2929 2930 2931 2932 2932 2934 2934 2935 2936 2937 2938 2938 2939 2940 2941 2942 2942 2943 2944 2945 2946 2948 2949 2950 2951 2950 2950 2952 2954 2955 2955 2955 2956 2957 2957 2958 2959 2960 2962 2962 2962 2963 2963 2964 2965 2966 2967 2968 2969 2970 2971 2972 2973 2975 2976 2977 2978 2980 2982 2984 2985 2987 2989 2990 2991 2992 2993 2993 2994 2995 2996 2997 2999 3001 3003
2913 2915 2916 2917 2918 2920 2921 2922 2923 2924 2925 2926 2927 2928 2929 2930 2931 2932 2932 2933 2934 2935 2936 2936 2937 2938 2939 2939 2940 2941 2942 2944 2946 2947 2947 2947 2947 2947 2949 2951 2951 2951 2951 2952 2953 2954 2955 2956 2957 2958 2958 2959 2959 2960 2961 2962 2963 2964 2965 2966 2967 2968 2970 2971 2972 2973 2975 2976 2978 2979 2981 2983 2984 2986 2987 2988 2989 2989 2990 2991 2992 2992 2994 2996 2998 3000
2909 2910 2912 2913 2914 2916 2917 2918 2919 2920 2922 2922 2923 2925 2926 2927 2928 2929 2930 2931 2932 2932 2933 2934 2934 2935 2936 2937 2937 2938 2939 2941 2942 2943 2944 2944 2944 2945 2946 2947 2948 2948 2948 2949 2950 2951 2952 2952 2953 2954 2955 2955 2956 2957 2957 2959 2960 2961 2962 2963 2965 2966 2967 2968 2970 2971 2972 2974 2975 2977 2978 2980 2981 2982 2983 2984 2985 2986 2987 2987 2988 2990 2992 2993 2995 2997
2905 2906 2907 2908 2910 2911 2912 2914 2915 2917 2918 2919 2920 2921 2922 2923 2925 2926 2927 2928 2929 2930 2930 2931 2931 2932 2933 2934 2935 2936 2936 2937 2939 2940 2941 2941 2941 2941 2942 2944 2944 2944 2945 2945 2946 2947 2948 2949 2950 2951 2952 2952 2953 2953 2954 2956 2957 2958 2959 2961 2962 2963 2965 2966 2967 2968 2969 2971 2972 2974 2975 2977 2978 2979 2980 2981 2982 2983 2983 2985 2986 2987 2988 2990 2992 2993
2900 2902 2903 2904 2905 2907 2908 2909 2911 2912 2914 2915 2917 2918 2919 2920 2921 2922 2924 2925 2926 2927 2927 2928 2928 2929 2930 2931 2932 2932 2933 2934 2935 2937 2938 2938 2937 2938 2939 2940 2941 2941 2942 2942 2942 2944 2945 2946 2947 2948 2948 2949 2950 2951 2952 2953 2954 2955 2957 2958 2959 2961 2962 2963 2964 2965 2967 2968 2969 2971 2972 2973 2974 2976 2977 2978 2979 2980 2981 2982 2983 2984 2986 2987 2988 2990
2896 2897 2898 2900 2901 2902 2904 2905 2907 2908 2910 2912 2913 2914 2915 2917 2917 2918 2920 2921 2922 2923 2924 2925 2926 2926 2927 2927 2928 2929 2929 2930 2932 2933 2934 2934 2934 2934 2935 2936 2937 2937 2938 2938 2939 2940 2942 2942 2944 2945 2946 2947 2947 2948 2949 2950 2952 2952 2954 2955 2956 2958 2959 2960 2961 2962 2964 2965 2966 2967 2969 2970 2971 2972 2973 2975 2976 2977 2978 2979 2980 2982 2982 2984 2985 2986
2891 2893 2894 2896 2897 2898 2900 2901 2903 2904 2906 2908 2909 2911 2912 2913 2914 2915 2916 2917 2918 2920 2921 2922 2922 2923 2924 2924 2925 2926 2926 2927 2928 2929 2930 2930 2931 2931 2932 2932 2933 2934 2935 2936 2936 2937 2939 2940 2941 2942 2942 2944 2945 2946 2947 2948 2949 2950 2950 2952 2953 2955 2956 2957 2958 2959 2961 2962 2963 2965 2966 2967 2968 2970 2971 2972 2973 2974 2975 2976 2977 2978 2979 2980 2982 2983
2887 2888 2890 2891 2893 2895 2896 2898 2899 2901 2902 2904 2905 2907 2908 2909 2910 2911 2912 2913 2914 2916 2917 2918 2919 2920 2920 2921 2922 2922 2922 2923 2924 2926 2927 2927 2927 2928 2929 2929 2930 2931 2932 2933 2933 2934 2936 2937 2937 2938 2939 2941 2942 2943 2944 2946 2946 2947 2947 2948 2950 2952 2953 2954 2955 2957 2958 2959 2961 2962 2963 2964 2966 2967 2968 2969 2970 2971 2972 2972 2973 2975 2976 2977 2978 2979
2882 2884 2885 2887 2889 2891 2892 2894 2896 2897 2899 2900 2901 2902 2903 2904 2905 2906 2907 2909 2910 2911 2913 2914 2915 2916 2917 2917 2918 2918 2919 2920 2921 2922 2923 2924 2925 2925 2926 2926 2927 2928 2929 2930 2931 2932 2933 2934 2935 2936 2937 2938 2940 2941 2942 2943 2944 2944 2945 2946 2947 2948 2949 2950 2952 2953 2955 2956 2958 2959 2960 2962 2963 2964 2965 2966 2967 2967 2968 2969 2970 2972 2973 2974 2975 2976
2878 2880 2881 2883 2885 2887 2889 2890 2892 2893 2895 2896 2897 2898 2899 2900 2901 2902 2903 2905 2906 2907 2909 2910 2912 2912 2913 2914 2915 2915 2916 2917 2917 2918 2920 2921 2922 2922 2923 2924 2924 2925 2926 2927 2928 2929 2930 2931 2932 2933 2935 2936 2937 2938 2939 2941 2941 2942 2942 2943 2944 2945 2946 2948 2949 2951 2952 2953 2955 2956 2957 2959 2960 2961 2962 2962 2964 2965 2966 2967 2968 2969 2970 2971 2972 2973
2874 2876 2877 2879 2881 2883 2885 2886 2888 2889 2891 2892 2893 2894 2895 2896 2897 2898 2900 2901 2902 2904 2905 2907 2908 2909 2910 2911 2912 2912 2913 2914 2914 2915 2917 2918 2919 2920 2920 2921 2922 2922 2923 2924 2925 2926 2927 2928 2929 2931 2932 2933 2935 2936 2937 2938 2938 2939 2940 2941 2942 2942 2944 2946 2947 2948 2949 2951 2952 2954 2955 2956 2957 2958 2959 2960 2961 2962 2963 2964 2965 2966 2967 2968 2969 2970
2870 2872 2873 2875 2877 2879 2881 2882 2883 2885 2886 2887 2888 2890 2891 2892 2893 2894 2896 2897 2898 2900 2901 2902 2904 2905 2906 2907 2908 2909 2910 2911 2912 2912 2913 2915 2916 2917 2917 2918 2919 2919 2920 2921 2922 2923 2924 2926 2927 2928 2929 2931 2932 2933 2934 2935 2936 2937 2938 2939 2939 2940 2942 2943 2944 2945 2947 2948 2950 2951 2952 2953 2954 2955 2956 2957 2958 2959 2960 2961 2962 2962 2963 2964 2965 2966
2866 2867 2868 2870 2872 2874 2876 2877 2879 2880 2882 2883 2884 2885 2887 2888 2889 2891 2892 2893 2894 2895 2897 2898 2900 2901 2902 2903 2904 2906 2907 2908 2909 2910 2911 2912 2913 2914 2915 2915 2916 2917 2917 2918 2919 2920 2922 2923 2924 2925 2926 2927 2929 2930 2931 2932 2933 2934 2935 2936 2937 2938 2939 2940 2941 2943 2945 2946 2947 2948 2950 2951 2952 2952 2953 2955 2955 2956 2957 2957 2958 2959 2960 2961 2962 2963
2861 2862 2864 2866 2868 2870 2871 2873 2874 2875 2877 2878 2880 2881 2883 2884 2886 2887 2888 2889 2890 2891 2892 2894 2896 2897 2898 2899 2901 2902 2904 2905 2906 2907 2907 2909 2910 2911 2912 2913 2913 2914 2915 2916 2917 2917 2919 2920 2922 2922 2923 2925 2926 2927 2928 2929 2930 2932 2932 2933 2934 2935 2936 2937 2939 2941 2942 2943 2944 2946 2947 2948 2949 2950 2951 2952 2952 2953 2954 2954 2955 2956 2957 2958 2959 2959
2857 2858 2860 2862 2864 2865 2867 2868 2869 2871 2872 2874 2876 2877 2879 2881 2882 2883 2884 2885 2886 2887 2888 2890 2892 2893 2894 2895 2897 2898 2900 2902 2902 2903 2904 2906 2907 2908 2909 2910 2911 2912 2913 2913 2914 2915 2916 2917 2918 2919 2920 2922 2923 2924 2925 2926 2928 2929 2930 2930 2932 2933 2934 2935 2937 2938 2939 2940 2942 2943 2944 2946 2947 2947 2948 2948 2949 2950 2951 2952 2952 2953 2954 2955 2955 2956
2853 2854 2856 2857 2859 2861 2862 2863 2865 2867 2868 2870 2872 2873 2875 2877 2878 2879 2880 2881 2882 2883 2884 2886 2887 2889 2890 2891 2892 2895 2897 2898 2899 2900 2901 2902 2904 2905 2906 2907 2908 2909 2910 2911 2912 2913 2914 2915 2915 2916 2917 2918 2919 2920 2922 2923 2925 2926 2927 2927 2929 2930 2931 2932 2933 2935 2936 2937 2939 2940 2941 2942 2943 2944 2944 2945 2946 2947 2948 2948 2949 2950 2951 2951 2952 2953
2848 2850 2852 2853 2855 2856 2857 2859 2861 2862 2864 2866 2867 2869 2870 2872 2874 2875 2876 2877 2878 2879 2880 2882 2883 2885 2886 2887 2889 2891 2893 2894 2895 2897 2898 2899 2901 2902 2903 2904 2905 2906 2907 2908 2909 2910 2911 2912 2912 2913 2914 2916 2917 2917 2919 2921 2922 2923 2923 2924 2926 2927 2928 2929 2930 2932 2933 2934 2935 2937 2937 2939 2939 2940 2941 2942 2943 2944 2944 2945 2946 2947 2947 2948 2949 2949
2844 2846 2847 2849 2850 2852 2853 2855 2857 2858 2860 2861 2863 2864 2867 2868 2870 2871 2872 2873 2874 2875 2876 2878 2879 2881 2882 2883 2885 2887 2889 2890 2892 2893 2894 2896 2897 2898 2899 2901 2902 2903 2904 2905 2906 2907 2908 2909 2910 2911 2912 2913 2914 2915 2916 2917 2919 2920 2920 2921 2922 2924 2925 2926 2927 2928 2930 2931 2932 2933 2934 2935 2936 2936 2937 2938 2939 2940 2941 2942 2942 2943 2944 2945 2945 2946
2840 2842 2843 2845 2846 2848 2849 2851 2852 2854 2856 2857 2859 2861 2862 2864 2866 2867 2868 2869 2870 2871 2873 2874 2876 2877 2878 2880 2882 2883 2885 2887 2888 2889 2891 2892 2893 2894 2896 2897 2898 2899 2900 2901 2902 2903 2905 2906 2907 2908 2909 2910 2911 2912 2913 2914 2916 2917 2917 2918 2919 2921 2922 2923 2924 2925 2926 2927 2928 2929 2930 2931 2932 2933 2934 2935 2936 2936 2937 2938 2939 2940 2941 2941 2942 2942
2836 2837 2839 2841 2842 2843 2845 2847 2848 2850 2852 2853 2855 2856 2858 2860 2862 2863 2864 2865 2866 2868 2869 2870 2872 2873 2875 2877 2878 2880 2882 2883 2884 2885 2887 2888 2889 2891 2892 2893 2894 2895 2897 2897 2899 2900 2901 2902 2903 2905 2906 2907 2908 2909 2910 2911 2912 2913 2914 2915 2916 2917 2919 2920 2921 2922 2923 2924 2925 2926 2927 2928 2929 2929 2930 2931 2932 2933 2934 2935 2936 2936 2937 2938 2938 2939
2832 2834 2835 2837 2838 2839 2841 2843 2845 2846 2848 2849 2851 2852 2854 2856 2857 2859 2860 2861 2863 2864 2865 2867 2868 2870 2872 2873 2874 2876 2878 2879 2881 2882 2883 2885 2886 2887 2888 2889 2890 2892 2893 2894 2895 2896 2897 2899 2900 2901 2902 2904 2906 2907 2907 2908 2909 2910 2912 2912 2913 2914 2916 2917 2917 2918 2920 2921 2922 2922 2923 2924 2925 2926 2927 2928 2929 2929 2930 2931 2932 2933 2933 2934 2935 2935